Regional Weather Roundup
Issued by NWS

Home | Current Version | Previous Version | Graphics & Text | Print | Product List | Glossary On
Versions: 1 2 3 4 5 6 7 8 9 10 11 12 13 14 15 16 17 18 19 20 21 22 23 24 25 26 27 28 29 30 31 32 33 34 35 36 37 38 39 40 41 42 43 44 45 46 47 48 49 50
000
ASUS43 KLOT 250604
RWRIL

ILLINOIS REGIONAL WEATHER ROUNDUP
NATIONAL WEATHER SERVICE CHICAGO/ROMEOVILLE IL
100 AM CDT THU AUG 25 2016

NOTE: "FAIR" INDICATES FEW OR NO CLOUDS BELOW 12,000 FEET WITH NO
SIGNIFICANT WEATHER AND/OR OBSTRUCTIONS TO VISIBILITY.

* THESE STATIONS ARE NOT UNDER NWS QUALITY CONTROL. THEY ALSO MAY NOT
  REPORT WEATHER SUCH AS PRECIPITATION OR FOG.

ILZ001-002-007-009-015-016-024-250700-
NORTHWEST ILLINOIS

CITY           SKY/WX    TMP DP  RH WIND       PRES   REMARKS
MOLINE         CLOUDY    72  69  90 W8        29.99
6HR MIN TEMP:  71; 6HR MAX TEMP:  82; 6HR PCP:  0.62;

STERLING*      CLOUDY    72  71  97 NW5       29.98R
SAVANNA*       CLOUDY    73  73  98 W3        29.97R FOG
$$

ILZ003-004-008-010-011-017-018-250700-
NORTH CENTRAL ILLINOIS

CITY           SKY/WX    TMP DP  RH WIND       PRES   REMARKS
ROCKFORD       CLOUDY    73  71  93 S6        29.97S
6HR MIN TEMP:  73; 6HR MAX TEMP:  83; 6HR PCP:  0.02;

FREEPORT*      MOCLDY    71  70  97 SW3       29.98F
ROCHELLE*      CLOUDY    72  71  98 CALM      29.98F
$$

ILZ005-006-012>014-019>023-250700-
NORTHEAST ILLINOIS

CITY           SKY/WX    TMP DP  RH WIND       PRES   REMARKS
CHICAGO-OHARE  TSTM      76  72  87 W8        29.97R
6HR MIN TEMP:  76; 6HR MAX TEMP:  82; 6HR PCP:  0.01;

CHICAGO-MIDWAY LGT RAIN  77  71  82 SW8       29.97S
6HR MIN TEMP:  77; 6HR MAX TEMP:  84; 6HR PCP: TRACE;

AURORA         LGT RAIN  74  72  93 S8        29.97  FOG
6HR MIN TEMP:  74; 6HR MAX TEMP:  82; 6HR PCP:  0.07;

LANSING*       PTCLDY    70  67  91 SW5       29.98S
JOLIET*        TSTM      74  72  93 SW10G31   30.02R
WAUKEGAN       CLOUDY    75  71  87 SW6       29.94S
6HR MIN TEMP:  74; 6HR MAX TEMP:  81;

DUPAGE AIRPORT RAIN      74  71  91 SW9       29.98  FOG
6HR MIN TEMP:  74; 6HR MAX TEMP:  82; 6HR PCP:  0.05;

KANKAKEE*      CLOUDY    71  70  96 CALM      30.00R
WHEELING       LGT RAIN  77  72  84 SW6       29.97
6HR MIN TEMP:  76; 6HR MAX TEMP:  82; 6HR PCP:  0.01;

MORRIS*        TSTM      71  70  96 CALM      29.98R
ROMEOVILLE*    CLOUDY    73  69  87 W9        30.01R
NORTHERLY ISL    N/A     77  69  76 S2          N/A
$$

LMZ740>746-250700-
SOUTHERN LAKE MICHIGAN

STATION/POSITION SKY/WX   TEMP    WIND        PRES    VSBY  WAVE
                          AIR SEA DIR/SP/G                  HT/PER
                          (F)     (DEG/KT/KT) (MB)    (MI)  (FT/S)
SOUTHERN BUOY              76 75  190/  8/ 10 1012.9          1
WILMETTE HARBOR            73 71  240/  6/  8   N/A           0
HARRISON CRIB              78     200/ 11/ 12   N/A
BURNHAM HARBOR             77     200/  4/  6   N/A
CALUMET HARBOR             76     200/  6/  8 1014.3F
BURNS HARBOR               76     200/  9/ 13 1015.6S
MICHIGAN CITY              75     190/ 12/ 14   N/A
MICHIGAN CITY 6N           75 74  220/ 10/ 12   N/A           1/ 2
ST. JOSEPH                 76 75  230/ 12/ 14 1014.2F         1/ 3
$$

ILZ025>027-034>036-040-047-049-050-058-095>099-250700-
WEST-CENTRAL ILLINOIS

CITY           SKY/WX    TMP DP  RH WIND       PRES   REMARKS
QUINCY         TSTM      70  70 100 W3        30.05S
GALESBURG*     RAIN      73  72  97 S9        30.00S
MACOMB*        CLOUDY    70  69  98 W5        30.04R
JACKSONVILLE*  CLOUDY    78  74  87 SW5       30.01R HX  80
PITTSFIELD*    CLOUDY    74  69  84 NW18G26   30.08R
$$

ILZ028>032-037-038-041>044-048-051>054-059>061-250700-
CENTRAL ILLINOIS

CITY           SKY/WX    TMP DP  RH WIND       PRES   REMARKS
PONTIAC        CLOUDY    75  74  98 CALM      30.00R
BLOOMINGTON    PTCLDY    75  73  93 S7        30.02R
DECATUR        CLOUDY    78  75  90 S6        30.02R HX  81
PEORIA         TSTM      69  69 100 VRB3      30.02R FOG
6HR MIN TEMP:  66; 6HR MAX TEMP:  83; 6HR PCP:  0.85;

LACON*         RAIN      71  69  92 CALM      29.99R
LINCOLN*       CLOUDY    77  75  92 CALM      30.00R
SPRINGFIELD    CLOUDY    78  73  84 S5        30.01  HX  81
6HR MIN TEMP:  75; 6HR MAX TEMP:  85;

TAYLORVILLE    MOCLDY    76  74  96 S5        30.02R
6HR MIN TEMP:  74; 6HR MAX TEMP:  82;

$$

ILZ033-039-045-046-055>057-062-063-250700-
EAST-CENTRAL ILLINOIS

CITY           SKY/WX    TMP DP  RH WIND       PRES   REMARKS
CHAMPAIGN      MOCLDY    76  73  91 S5        30.02R
RANTOUL*       PTCLDY    76  75  97 S7        30.01S FOG
MATTOON        CLEAR     76  74  93 S5        30.03R
PARIS*         CLOUDY    73  72  96 CALM      30.04S
$$

ILZ079-100>102-250700-
SOUTHWEST ILLINOIS

CITY           SKY/WX    TMP DP  RH WIND       PRES   REMARKS
ALTON          CLEAR     80  74  80 SW10      30.03R HX  85
BELLEVILLE     CLEAR     79  77  91 SW5       30.03R HX  84
CAHOKIA*       CLEAR     81  74  79 SW5       30.04R HX  86
SPARTA*        CLEAR     79  75  88 SW7       30.05S HX  83
$$

ILZ064>066-069>071-074>076-080>082-084>086-088>090-092>094-250700-
SOUTH-CENTRAL ILLINOIS

CITY           SKY/WX    TMP DP  RH WIND       PRES   REMARKS
CARBONDALE     CLEAR     79  73  82 SW9       30.05S HX  82
6HR MIN TEMP:  77; 6HR MAX TEMP:  85;

EFFINGHAM*     PTCLDY    78  77  97 S3        30.05S HX  81
MARION         CLEAR     77  75  94 S6        30.07S
MT. VERNON     CLEAR     79  72  78 SW8       30.06R HX  82
CENTRALIA*     CLEAR     78  76  94 S6        30.03S HX  80
SALEM*         CLEAR     80  75  85 SW8       30.03S HX  84
METROPOLIS*    CLEAR     78  74  89 CALM      30.08R HX  80
$$

ILZ067-068-072-073-078-083-087-091-250700-
SOUTHEAST ILLINOIS

CITY           SKY/WX    TMP DP  RH WIND       PRES   REMARKS
LAWRENCEVILLE  CLEAR     78  75  90 SW10      30.05R HX  81
FLORA*         CLEAR     78  76  94 S5        30.04S HX  81
FAIRFIELD*     CLEAR     77  76  96 CALM      30.05R
HARRISBURG*    CLEAR     77  75  94 SW3       30.07R
ROBINSON*      CLEAR     77  75  92 SW8       30.05R
CARMI*         CLEAR     75  74  96 S3        30.06R
$$

ABBREVIATIONS USED IN REMARKS
   TC - TEMPERATURE IN CELSIUS
  WCI - WIND CHILL INDEX
   HX - HEAT INDEX
  VSB - VISIBILITY
$$





USA.gov is the U.S. government's official web portal to all federal, state and local government web resources and services.